Theta_e
350 350 348 348 349 349 349 350 350 350 351 350 349 346 345 348 347 347 348 347 348 349 347 347 346 345 346 343 343 343 330 333 336 335 334 333 338 334 332 333 334 333 332
348 349 349 348 349 350 349 349 349 350 350 349 351 347 345 346 342 345 348 347 347 347 347 344 344 344 343 344 342 342 326 335 334 335 334 335 338 336 331 332 329 329 327
348 349 349 348 348 349 349 349 349 349 350 349 351 351 350 344 346 346 347 346 346 345 348 345 345 341 344 343 343 341 327 336 336 335 335 339 339 337 334 332 331 328 329
346 346 349 349 348 348 348 349 349 349 349 349 350 352 351 347 346 347 348 346 350 350 350 346 345 343 338 340 344 336 328 332 336 335 335 334 338 338 335 331 333 332 330
344 345 346 347 348 348 348 348 349 349 349 349 349 350 351 349 344 345 346 349 348 350 349 348 346 343 337 341 339 327 321 329 336 336 335 334 332 336 338 336 333 332 331
344 344 344 345 347 347 347 347 348 349 349 349 349 349 348 348 346 346 350 351 351 349 349 348 343 342 338 342 332 325 326 322 336 336 335 334 330 331 331 333 335 333 331
343 344 344 346 346 347 347 347 348 349 349 349 349 349 348 348 346 346 350 351 352 349 349 347 343 345 340 338 335 323 324 319 330 335 334 334 334 333 333 332 330 330 330
342 344 344 345 345 346 347 347 347 348 349 349 349 349 349 348 347 346 350 351 347 346 348 348 347 343 338 336 329 320 321 319 322 330 333 333 334 333 332 331 330 329 329
340 342 344 344 346 346 346 347 348 348 348 349 349 349 350 347 347 347 344 344 343 346 348 348 348 344 339 337 337 321 320 320 321 320 323 327 332 333 332 332 333 333 330
341 341 342 344 346 346 346 347 347 348 348 349 349 350 350 346 346 347 343 346 349 350 349 350 345 344 345 345 337 328 320 321 321 324 323 321 327 333 331 332 330 331 330
342 342 342 343 344 346 347 347 347 348 349 349 349 350 351 349 347 347 346 346 351 353 352 350 346 344 344 345 344 333 322 321 322 322 324 323 324 328 332 333 332 331 332
343 344 344 343 345 346 348 347 347 348 349 349 350 351 351 351 347 347 345 345 349 351 353 351 348 347 346 345 344 341 324 321 320 320 325 328 328 329 330 333 332 332 332
341 341 343 344 344 346 348 348 347 347 348 350 351 351 351 352 350 343 345 343 345 347 354 353 351 349 348 347 346 342 332 322 322 320 326 329 331 330 328 328 329 329 331
340 340 343 344 345 346 348 348 348 347 348 349 352 351 350 351 350 347 341 342 342 344 345 353 353 352 351 350 349 347 343 331 323 322 325 331 332 333 331 327 326 332 333
338 339 343 345 346 347 348 348 348 348 348 349 350 351 350 350 351 349 343 340 342 342 344 349 351 351 351 351 350 349 346 341 328 325 320 325 327 332 333 330 328 331 330
339 338 343 345 346 347 347 348 349 348 349 349 349 349 350 351 351 350 348 340 340 344 346 347 350 351 352 351 351 350 347 345 335 329 321 325 328 334 335 328 330 331 332
338 342 345 345 346 347 347 349 349 349 351 350 350 350 350 349 350 350 350 348 343 344 350 351 353 355 353 353 352 350 348 347 339 332 324 327 330 333 335 331 330 328 329
338 337 346 346 347 348 347 347 349 350 351 351 350 350 350 349 349 350 349 351 351 351 352 353 354 354 351 349 350 352 351 346 340 333 325 330 333 333 333 332 331 330 329
335 339 342 346 347 347 347 348 350 351 352 352 351 350 350 350 351 350 349 351 354 355 355 355 357 352 333 353 355 353 348 342 333 327 335 336 337 334 331 331 332 328 325
330 334 335 333 335 346 346 346 349 350 351 351 350 349 350 351 351 351 353 353 354 355 357 358 357 342 343 354 353 347 342 337 333 336 337 337 334 335 333 330 326 327 329
329 329 332 334 332 334 347 346 347 348 346 346 348 352 352 351 350 353 357 355 354 358 360 358 356 350 354 352 345 341 339 336 334 333 335 334 334 334 330 328 328 329 328
337 336 332 331 329 332 332 340 346 344 345 348 352 354 354 353 354 355 359 357 356 356 355 356 355 356 349 345 342 340 338 336 335 337 336 334 332 330 329 329 329 328 327
341 338 336 336 332 332 333 335 339 344 349 350 352 353 354 354 354 357 359 357 357 355 357 356 355 348 345 343 342 340 338 338 339 337 334 332 329 329 329 329 328 326 323
360 361 360 357 341 337 336 344 339 343 350 350 351 352 353 355 356 359 358 356 357 354 354 351 346 345 344 342 340 339 339 339 339 336 331 329 329 329 329 327 323 321 320
353 352 349 356 360 361 345 349 351 352 352 351 352 355 358 358 361 363 358 355 353 352 348 343 343 343 342 341 338 338 336 335 335 332 330 330 331 328 323 322 322 322 321
344 345 338 337 333 345 353 358 357 354 353 357 358 359 362 362 361 356 351 348 346 345 342 340 339 339 339 338 337 335 332 328 323 324 325 327 325 323 321 322 323 322 320
Wind_Speed
44 41 40 40 42 41 41 41 39 32 27 27 26 31 31 31 26 22 19 20 17 15 13 12 12 12 8 4 5 6 6 7 7 7 7 6 3 4 5 6 5 4 4
42 43 43 39 42 45 44 42 39 34 30 27 25 24 27 29 30 25 21 21 19 18 14 10 10 12 12 10 10 8 4 10 7 5 8 12 8 7 7 4 3 3 7
46 50 49 47 43 43 46 45 41 37 33 30 26 24 21 26 28 26 25 20 22 16 14 12 12 12 15 14 12 9 6 12 11 5 7 7 7 13 10 8 4 3 5
47 53 54 55 53 51 47 45 43 40 37 35 31 31 30 31 29 25 25 23 20 20 18 16 15 14 14 14 12 9 8 13 14 10 6 6 8 12 12 13 8 5 2
51 51 57 58 58 55 54 51 48 45 41 38 36 35 33 29 22 26 23 22 23 20 19 17 16 17 15 13 12 9 8 15 13 11 8 5 8 10 13 13 15 10 7
49 54 57 58 60 58 55 54 53 49 45 42 37 38 38 34 28 29 27 22 22 23 21 18 18 17 15 14 10 9 9 12 14 12 12 10 10 9 9 9 14 10 11
49 51 52 54 57 61 59 57 55 52 48 44 39 35 37 34 31 31 29 25 25 26 25 21 17 16 15 14 12 12 12 14 16 15 14 13 12 8 8 9 10 6 6
50 53 59 61 63 62 61 60 57 52 50 46 41 35 34 35 34 29 32 30 28 27 25 24 20 18 17 16 14 13 12 13 16 17 19 17 17 14 11 10 10 8 7
52 55 60 63 63 61 63 61 58 54 50 46 41 39 35 35 37 30 30 32 31 29 28 26 20 19 18 17 15 15 14 13 13 15 16 18 17 16 15 12 10 9 8
51 53 57 63 62 63 63 60 58 55 50 48 43 39 36 35 38 34 34 33 29 28 29 26 21 21 21 20 17 17 16 15 15 14 15 16 20 17 17 14 11 12 11
51 56 52 55 62 60 60 61 59 56 53 49 45 41 37 37 37 38 38 38 32 30 32 29 26 25 25 24 21 20 19 17 16 16 15 15 17 19 21 18 13 14 16
48 58 55 52 51 57 57 60 59 57 55 47 46 42 37 37 38 38 40 41 41 36 35 33 31 29 28 27 24 23 23 21 19 18 17 15 18 20 22 21 19 17 16
30 28 45 50 55 56 58 59 59 58 55 50 47 43 41 39 39 39 39 42 44 44 39 36 36 34 31 30 28 25 25 24 22 21 20 18 19 21 21 20 20 22 20
26 35 41 51 53 55 57 59 59 59 56 51 50 46 43 42 40 39 40 42 45 46 47 44 41 39 35 34 32 30 27 27 25 24 23 21 22 22 19 21 23 21 20
34 33 46 53 54 54 56 56 58 60 58 55 51 49 44 43 42 40 40 42 43 46 46 44 42 40 38 38 37 35 31 28 27 26 26 25 23 23 20 20 22 23 21
38 33 46 57 56 58 58 57 58 59 59 58 55 49 45 46 46 44 42 41 43 43 44 44 43 43 40 40 40 38 36 31 28 28 26 26 23 24 24 20 22 22 21
30 36 46 51 56 60 59 56 56 57 58 58 56 52 47 47 47 46 43 42 42 41 40 42 42 39 40 39 38 37 34 31 27 28 26 25 24 26 26 25 22 22 23
21 31 46 49 60 60 55 55 56 57 58 57 56 54 50 48 48 48 45 43 40 38 34 33 32 32 35 32 28 29 28 24 25 27 26 24 22 25 23 23 23 23 21
14 19 32 48 50 52 53 54 54 55 56 57 56 55 52 49 49 48 45 41 38 36 32 28 28 28 38 35 31 27 24 19 23 24 24 23 24 24 22 21 22 22 25
26 26 24 19 21 47 48 49 54 55 57 58 57 55 55 51 48 46 44 40 36 32 28 26 29 29 24 29 25 17 18 20 22 23 25 25 24 26 21 23 25 26 22
26 29 33 33 30 29 45 48 53 58 55 52 56 59 58 55 49 45 45 39 34 28 26 28 31 25 22 22 14 14 16 20 21 18 21 22 22 24 24 23 24 22 18
11 19 27 35 39 41 41 47 54 52 50 58 55 53 57 55 51 48 46 35 30 27 31 33 25 22 18 15 16 16 15 15 16 16 17 18 16 14 16 19 17 15 14
13 18 21 27 36 39 42 46 44 48 53 52 49 49 49 51 51 50 40 35 36 35 33 28 26 21 18 18 15 15 14 14 15 15 14 15 14 14 13 14 12 10 7
1 5 11 17 29 33 45 49 51 50 53 48 47 49 48 48 47 41 37 38 39 34 30 25 21 18 19 18 16 16 16 17 16 16 16 15 14 14 14 11 9 6 7
7 8 11 8 11 19 38 46 43 48 50 48 46 43 42 41 42 42 37 34 31 29 27 22 20 22 22 19 13 11 11 12 12 14 17 17 14 11 8 8 7 9 11
13 13 21 25 30 20 20 36 37 42 45 43 43 40 39 38 37 28 22 21 21 20 19 19 18 18 14 15 15 14 14 14 13 12 11 11 10 9 9 9 10 11 12
Wind_Direction
194 200 204 205 209 211 209 206 204 202 202 203 208 214 213 209 214 216 225 234 237 249 257 261 248 241 234 254 257 252 314 160 147 141 170 202 173 149 141 146 195 216 250
196 200 201 202 208 211 212 208 211 207 208 213 214 211 214 217 215 219 223 239 234 238 242 239 229 230 226 228 250 258 259 181 176 193 200 188 178 180 187 218 226 276 40
197 199 204 204 207 208 210 211 213 216 216 213 218 219 218 212 212 214 220 229 226 225 236 228 236 226 221 224 241 266 231 188 190 186 181 175 188 187 196 210 189 126 68
201 200 204 207 210 212 216 215 217 218 223 223 219 217 218 212 216 215 219 220 228 235 234 233 244 235 233 237 248 254 235 202 195 185 170 193 201 182 187 200 216 218 125
202 204 205 211 211 213 215 218 219 220 225 224 227 223 224 226 232 217 216 222 227 226 227 237 243 239 246 239 244 243 224 210 209 203 189 182 195 198 201 204 213 220 226
204 208 211 212 213 214 216 217 218 219 222 223 228 231 231 230 227 219 221 217 218 218 225 238 233 237 234 235 244 232 230 222 208 208 204 202 195 193 197 220 208 237 235
202 208 209 208 212 213 216 217 218 217 219 222 224 230 234 233 228 220 214 211 218 220 223 229 227 231 230 236 243 233 232 224 219 217 216 216 223 213 218 191 191 212 232
204 205 213 215 214 214 216 217 218 218 218 220 224 228 232 230 224 221 215 222 225 230 236 232 237 234 231 232 236 229 224 221 216 223 228 233 228 224 218 227 246 245 273
204 207 213 217 213 212 218 218 218 219 221 221 223 226 228 227 221 217 215 219 223 230 232 230 237 228 225 229 234 229 227 223 221 224 226 229 226 233 239 228 238 249 275
203 207 213 213 213 215 219 220 221 220 221 222 222 225 227 227 221 217 215 219 225 225 225 228 230 227 231 231 235 236 228 229 224 220 227 233 227 227 230 233 237 241 253
201 207 209 211 215 213 214 219 220 220 220 224 221 222 224 225 223 219 218 222 227 224 226 232 232 233 234 237 242 240 234 232 231 224 230 239 227 228 227 231 239 239 248
195 206 214 211 206 211 212 218 219 220 222 222 223 222 223 224 224 223 220 221 226 228 227 232 236 239 241 243 247 246 240 232 233 234 233 245 237 232 224 232 244 243 247
213 215 208 207 210 212 212 217 220 221 223 220 222 221 223 224 224 227 224 223 224 228 230 233 237 239 242 245 248 250 247 244 238 234 236 241 252 253 244 242 248 244 249
220 242 215 210 211 215 211 218 220 222 221 222 221 222 223 226 226 226 226 226 226 228 230 233 238 242 245 249 251 253 250 247 240 239 240 243 248 252 255 250 245 244 249
213 220 202 204 210 213 212 219 223 221 222 221 222 223 224 227 229 228 228 229 230 231 232 234 238 242 244 250 253 258 252 248 242 238 239 243 247 250 252 260 252 251 253
203 211 205 205 208 215 217 219 219 220 221 222 225 224 224 227 229 230 229 229 233 233 234 236 239 243 247 253 256 256 255 250 243 235 236 241 247 247 245 267 255 259 260
206 208 207 211 212 214 218 216 220 221 221 223 225 226 224 227 230 231 232 234 232 234 236 238 240 245 252 255 256 254 253 253 246 238 239 241 248 245 246 264 256 258 260
234 195 206 204 211 215 219 223 221 220 222 223 223 227 226 226 228 230 231 234 235 237 236 239 244 251 264 261 259 257 253 248 241 241 242 244 254 250 250 258 256 258 266
210 209 212 210 210 214 218 220 217 219 220 224 224 226 227 226 227 228 229 231 233 234 236 239 236 225 258 258 258 246 240 244 237 233 238 246 256 255 259 260 265 268 276
223 223 219 210 216 224 217 219 219 221 223 226 229 229 227 227 227 228 227 226 229 233 234 237 233 253 243 247 246 247 239 233 235 239 249 258 266 264 254 260 264 273 276
233 225 228 221 224 226 220 217 221 222 227 230 230 225 225 226 227 228 226 222 226 226 228 234 233 243 238 235 236 226 224 229 236 242 249 257 258 257 261 264 272 276 283
241 241 240 240 236 225 223 226 224 227 229 227 221 221 223 223 223 224 222 220 220 217 224 223 230 221 228 214 209 213 210 205 225 240 240 242 244 247 255 260 269 271 273
235 240 257 254 247 247 236 225 223 224 223 219 215 217 217 220 220 219 214 212 211 215 215 211 210 201 199 207 208 205 211 221 230 233 233 236 244 254 264 272 266 263 262
53 303 260 256 260 258 243 230 224 219 214 212 213 211 211 210 213 209 208 210 206 211 213 201 185 193 200 197 200 201 212 221 223 223 221 234 246 254 263 253 250 236 259
32 13 355 334 306 296 241 224 214 209 202 200 200 197 198 202 194 193 202 211 220 213 196 189 184 186 191 189 188 196 202 208 213 217 228 242 252 229 213 226 238 250 258
340 308 311 307 311 297 310 210 207 201 195 182 182 187 194 193 187 182 177 166 181 170 165 160 162 169 164 177 178 178 177 182 197 216 225 218 206 219 229 241 248 245 253